Date,TemperatureHighF,TemperatureAvgF,TemperatureLowF,DewpointHighF,DewpointAvgF,DewpointLowF,HumidityHigh,HumidityAvg,HumidityLow,PressureMaxIn,PressureMinIn,WindSpeedMaxMPH,WindSpeedAvgMPH,GustSpeedMaxMPH,PrecipitationSumIn
2013-5-1,66,56,52,54,51,42,97,85,51,30.12,29.94,0,0,0,0.02
2013-5-2,66,54,50,52,44,34,89,70,53,30.12,30.01,0,0,0,0.00
2013-5-3,60,51,48,48,44,40,89,77,58,30.06,29.95,0,0,0,0.00
2013-5-4,60,48,43,46,41,38,86,77,53,29.97,29.85,0,0,0,0.00
2013-5-5,51,48,44,48,42,28,97,78,53,29.89,29.77,0,0,0,0.03
2013-5-6,55,50,49,54,49,48,98,97,95,29.78,29.63,0,0,0,0.05
2013-5-7,59,53,47,53,52,46,100,97,73,29.71,29.63,0,0,0,0.03
2013-5-8,58,49,46,53,48,45,100,98,81,29.80,29.67,0,0,0,0.01
2013-5-9,76,57,49,56,51,48,99,84,42,29.82,29.75,0,0,0,0.02
2013-5-10,80,60,52,60,54,50,98,83,45,29.81,29.67,0,0,0,0.01
2013-5-11,72,60,56,62,58,50,100,95,61,29.67,29.52,0,0,0,0.01
2013-5-12,58,52,45,51,42,29,85,70,35,29.84,29.59,0,0,0,0.08
2013-5-13,58,46,37,33,30,25,81,55,29,29.96,29.82,0,0,0,0.01
2013-5-14,71,46,34,45,35,29,94,69,29,30.02,29.75,0,0,0,0.06
2013-5-15,86,62,50,60,49,45,90,67,30,29.78,29.61,0,0,0,0.05
2013-5-16,80,68,63,58,55,50,75,63,41,29.75,29.62,0,0,0,0.02
2013-5-17,82,64,58,64,57,54,93,78,43,29.84,29.72,0,0,0,0.00
2013-5-18,66,62,60,63,60,59,99,96,85,29.91,29.80,0,0,0,0.05
2013-5-19,68,62,60,65,61,60,100,98,89,29.88,29.78,0,0,0,0.04
2013-5-20,80,68,61,66,63,60,100,87,60,29.85,29.72,0,0,0,0.05
2013-5-21,87,66,56,66,61,56,100,87,43,29.80,29.64,0,0,0,0.45
2013-5-22,86,64,58,68,60,57,99,88,38,29.71,29.62,0,0,0,0.11
2013-5-23,79,63,59,64,60,57,99,91,51,29.68,29.52,0,0,0,0.67
2013-5-24,60,56,47,57,49,34,92,79,45,30.01,29.58,0,0,0,0.01
2013-5-25,66,49,41,39,33,27,71,57,27,30.08,29.97,0,0,0,0.00
2013-5-26,71,54,49,42,40,34,76,59,27,30.03,29.94,0,0,0,0.00
2013-5-27,76,56,49,57,45,38,83,65,43,30.05,29.88,0,0,0,0.00
2013-5-28,83,64,56,63,57,53,95,80,37,29.95,29.84,0,0,0,0.00
2013-5-29,86,68,60,63,60,55,96,77,38,29.94,29.84,0,0,0,0.00
2013-5-30,86,68,59,64,60,49,95,77,29,29.99,29.88,0,0,0,0.00
2013-5-31,83,67,59,64,60,57,95,78,47,29.94,29.81,0,0,0,0.00